This demonstration page uses our WeatherBlox Daily Observations layout. Learn more.

Left ArrowRight Arrow

44.8408, -93.29828

Hourly Observations for July 24, 2019

Temp ( °F °C ) Dew Point ( °F °C ) Humidity (%) Winds ( mph kmh ) Pressure ( in mb ) Visibility ( mi km ) Precip ( " mm )
12:53 am 00:53 Mostly Cloudy 72 22.2 59 15 64 64 SW 3 6 30.16 1021 10 16 0.00 0.00
2:53 am 02:53 Mostly Cloudy 68 20 60 15.6 76 76 Calm 30.15 1021 10 16 0.00 0.00
3:53 am 03:53 Clear 67 19.4 61 16.1 81 81 WSW 5 7 30.15 1021 10 16 0.00 0.00
4:53 am 04:53 Mostly Cloudy 66 18.9 61 16.1 84 84 SSW 3 6 30.16 1022 10 16 0.00 0.00
5:53 am 05:53 Mostly Sunny 66 18.9 60 15.6 81 81 SSW 3 6 30.17 1022 10 16 0.00 0.00
6:53 am 06:53 Mostly Sunny 65 18.3 60 15.6 84 84 WSW 5 7 30.18 1022 10 16 0.00 0.00
7:53 am 07:53 Mostly Sunny 68 20 61 16.1 78 78 W 3 6 30.19 1023 10 16 0.00 0.00
8:53 am 08:53 Mostly Sunny 74 23.3 62 16.7 67 67 Calm 30.19 1022 10 16 0.00 0.00
9:53 am 09:53 Mostly Sunny 77 25 61 16.1 58 58 WSW 3 6 30.17 1022 10 16 0.00 0.00
10:53 am 10:53 Sunny 80 26.7 57 13.9 45 45 SW 7 11 30.16 1021 10 16 0.00 0.00
11:53 am 11:53 Mostly Sunny 82 27.8 58 14.4 44 44 W 6 9 30.14 1021 10 16 0.00 0.00
1:53 pm 13:53 Mostly Sunny 82 27.8 56 13.3 41 41 SSW 7 11 30.13 1020 10 16 0.00 0.00
2:53 pm 14:53 Mostly Sunny 83 28.3 56 13.3 40 40 VRB 5 7 30.11 1020 10 16 0.00 0.00
3:53 pm 15:53 Mostly Sunny 83 28.3 56 13.3 40 40 S 9 15 30.11 1020 10 16 0.00 0.00
4:53 pm 16:53 Mostly Sunny 83 28.3 56 13.3 40 40 SSW 12 19 30.10 1019 10 16 0.00 0.00
5:53 pm 17:53 Mostly Sunny 84 28.9 56 13.3 38 38 SW 10 17 30.09 1019 10 16 0.00 0.00
6:53 pm 18:53 Sunny 82 27.8 54 12.2 38 38 SW 8 13 30.08 1019 10 16 0.00 0.00
7:53 pm 19:53 Mostly Sunny 81 27.2 56 13.3 42 42 SSW 9 15 30.08 1019 10 16 0.00 0.00
8:53 pm 20:53 Mostly Clear 79 26.1 57 13.9 47 47 SSW 8 13 30.07 1018 10 16 0.00 0.00
9:53 pm 21:53 Partly Cloudy 77 25 58 14.4 52 52 S 7 11 30.07 1018 10 16 0.00 0.00
10:53 pm 22:53 Partly Cloudy 75 23.9 58 14.4 55 55 SSW 5 7 30.08 1019 10 16 0.00 0.00
11:53 pm 23:53 Partly Cloudy 71 21.7 59 15 66 66 SSE 5 7 30.08 1019 10 16 0.00 0.00

Powered by AerisWeather